[[{"header":{"parameterUnit":"m.s-1","parameterCategory":1,"la1":30.2992,"la2":30.254,"lo1":-89.0895,"lo2":-89.0443,"dy":0.0025,"dx":0.0025,"nx":19,"ny":19,"refTime":"2026-05-22T09:00:00:Z","depth":0,"parameterNumber":2,"parameterNumberName":"U-component_of_WINDS"},"data":[0,0,0,-0.614,-0.6141,-0.6209,-0.621,-0.6282,-0.6283,0,0,0,0,0,0,0,0,0,0,0,-0.6111,-0.6112,-0.614,-0.6142,-0.6209,-0.621,-0.6282,-0.6283,0,0,0,0,0,0,0,0,0,0,0,-0.6111,-0.6111,-0.6112,-0.6142,-0.6209,-0.621,-0.6282,-0.6236,0,0,0,0,0,0,0,0,0,0,-0.6173,-0.6137,-0.6111,-0.6112,-0.6142,-0.6209,-0.621,-0.6234,-0.6239,-0.6245,0,-0.6248,0,-0.6266,-0.6287,-0.6287,0,0,0,-0.6149,-0.6133,-0.6159,-0.6112,-0.6143,-0.6209,-0.6181,-0.6237,-0.6242,-0.6252,-0.6249,-0.6253,-0.6268,-0.6287,-0.6287,-0.6299,-0.6298,0,0,-0.6145,-0.6119,-0.6155,-0.6162,-0.615,-0.6178,-0.6183,-0.624,-0.6237,-0.625,-0.6254,-0.6269,-0.6287,-0.6288,-0.6299,-0.6299,0,0,0,-0.6129,-0.6116,-0.6141,-0.6159,-0.6172,-0.618,-0.6185,-0.6234,-0.6244,-0.6255,-0.627,-0.6288,-0.6288,-0.6299,-0.6299,-0.6259,0,0,0,-0.6127,-0.6107,-0.6139,-0.6124,-0.6171,-0.6204,-0.6177,-0.624,-0.6248,-0.6269,-0.6288,-0.6289,-0.63,-0.6299,-0.6261,-0.6245,0,0,0,-0.611,-0.6105,-0.6112,-0.6123,-0.6151,-0.6204,-0.6217,-0.6243,-0.6256,-0.6287,-0.6289,-0.63,-0.6299,-0.6263,-0.6248,-0.6239,0,0,0,-0.6084,-0.6077,-0.6111,-0.6109,-0.615,-0.6178,-0.6217,-0.624,-0.6262,-0.6288,-0.63,-0.6299,-0.6263,-0.6249,-0.6241,-0.6227,-0.6219,0,0,-0.6061,-0.6074,-0.6074,-0.6106,-0.6122,-0.617,-0.6181,-0.6226,-0.6253,-0.6282,-0.6283,-0.626,-0.6248,-0.624,-0.6184,-0.6177,0,0,0,-0.6058,-0.6058,-0.6068,-0.6087,-0.612,-0.6147,-0.6193,-0.6209,-0.6235,-0.6262,-0.6257,-0.625,-0.6246,-0.6241,-0.6235,-0.6233,-0.6296,-0.6296,-0.6296,-0.5989,-0.6023,-0.6026,-0.6066,-0.6084,-0.613,-0.6147,-0.6178,-0.6208,-0.6206,-0.6214,-0.6177,-0.6169,-0.6165,-0.6162,-0.6211,-0.621,-0.621,-0.621,-0.5958,-0.5963,-0.6001,-0.6017,-0.6052,-0.6067,-0.611,-0.6131,-0.6149,-0.6173,-0.6172,-0.6195,-0.6157,-0.6156,-0.6208,-0.6208,-0.6208,-0.6209,-0.6209,-0.5916,-0.5924,-0.5943,-0.5972,-0.599,-0.6032,-0.6047,-0.608,-0.611,-0.6109,-0.612,-0.6121,-0.6125,-0.6112,-0.6112,-0.6112,-0.6111,-0.6111,-0.6111,-0.5865,-0.5887,-0.5895,-0.5928,-0.5943,-0.5967,-0.6012,-0.6028,-0.6054,-0.6076,-0.6076,-0.6105,-0.6147,-0.6156,-0.6109,-0.611,-0.611,-0.611,-0.611,-0.582,-0.5834,-0.5847,-0.5861,-0.5901,-0.5916,-0.5957,-0.5986,-0.6004,-0.601,-0.6039,-0.6065,-0.608,-0.6085,-0.6093,-0.6033,-0.6033,-0.6033,-0.6033,-0.5783,-0.5794,-0.5813,-0.5834,-0.5858,-0.5895,-0.5907,-0.5941,-0.5979,-0.5992,-0.6005,-0.6019,-0.6022,-0.6036,-0.6041,-0.6049,-0.5979,-0.5979,-0.5979,-0.5757,-0.5771,-0.5775,-0.5811,-0.5844,-0.5871,-0.5883,-0.5906,-0.5952,-0.5977,-0.6002,-0.6005,-0.6026,-0.6032,-0.6058,-0.6066,-0.6081,0,0]},{"header":{"parameterUnit":"m.s-1","parameterCategory":1,"la1":30.2992,"la2":30.254,"lo1":-89.0895,"lo2":-89.0443,"dy":0.0025,"dx":0.0025,"nx":19,"ny":19,"refTime":"2026-05-22T09:00:00:Z","depth":0,"parameterNumber":3,"parameterNumberName":"V-component_of_WINDS"},"data":[0,0,0,4.1323,4.1328,4.1585,4.1586,4.1911,4.1913,0,0,0,0,0,0,0,0,0,0,0,4.1243,4.1245,4.1322,4.1329,4.1585,4.1586,4.191,4.1913,0,0,0,0,0,0,0,0,0,0,0,4.1242,4.1245,4.1247,4.1329,4.1585,4.1586,4.1909,4.1717,0,0,0,0,0,0,0,0,0,0,4.1468,4.1392,4.1244,4.1248,4.1331,4.1585,4.1586,4.1708,4.1729,4.1792,0,4.1847,0,4.1885,4.1935,4.1936,0,0,0,4.1331,4.1374,4.1446,4.1248,4.1333,4.1584,4.147,4.172,4.1744,4.182,4.1851,4.1863,4.189,4.1937,4.1938,4.2289,4.229,0,0,4.1317,4.1288,4.143,4.1462,4.1421,4.1462,4.1478,4.1734,4.1767,4.1852,4.1871,4.1896,4.1939,4.1941,4.2288,4.2289,0,0,0,4.1274,4.1278,4.1344,4.1448,4.1495,4.1469,4.1488,4.1756,4.1779,4.1875,4.1899,4.1941,4.1945,4.2286,4.2288,4.2333,0,0,0,4.1266,4.1253,4.1338,4.1323,4.149,4.1628,4.1503,4.1761,4.1791,4.1898,4.1941,4.1948,4.2284,4.2287,4.2328,4.2359,0,0,0,4.1228,4.1249,4.1285,4.132,4.143,4.1625,4.1663,4.1769,4.1807,4.1936,4.1949,4.2283,4.2287,4.2324,4.2352,4.2441,0,0,0,4.1179,4.1323,4.1285,4.1456,4.1427,4.165,4.1662,4.183,4.1947,4.1942,4.2285,4.2288,4.2323,4.2348,4.2437,4.251,4.2538,0,0,4.1344,4.1342,4.1444,4.1418,4.164,4.1614,4.1843,4.1978,4.2018,4.2197,4.2206,4.233,4.2352,4.244,4.2709,4.2731,0,0,0,4.1487,4.156,4.1625,4.1734,4.184,4.1932,4.2035,4.2085,4.2238,4.2104,4.2388,4.2402,4.2455,4.2492,4.2511,4.2557,4.2304,4.2304,4.2303,4.168,4.1721,4.1893,4.1965,4.207,4.2174,4.2263,4.2348,4.2361,4.2428,4.248,4.2638,4.268,4.2694,4.2742,4.2524,4.2524,4.2524,4.2525,4.1924,4.2034,4.2045,4.2216,4.2259,4.2403,4.2509,4.2513,4.2653,4.2602,4.2651,4.259,4.2717,4.2761,4.2528,4.2528,4.2527,4.2527,4.2527,4.2054,4.2113,4.217,4.2331,4.245,4.2519,4.2652,4.2688,4.2723,4.2771,4.283,4.2829,4.2832,4.2797,4.2798,4.2798,4.2799,4.2799,4.2799,4.2165,4.2228,4.2335,4.2458,4.2532,4.2633,4.2738,4.2813,4.2903,4.2919,4.292,4.2924,4.2722,4.2669,4.2808,4.2806,4.2805,4.2804,4.2804,4.2395,4.2348,4.2514,4.2588,4.2734,4.2849,4.2893,4.304,4.3106,4.3171,4.3166,4.3011,4.3011,4.2997,4.2953,4.3157,4.3157,4.3157,4.3157,4.2503,4.2506,4.2683,4.2798,4.2915,4.297,4.3157,4.324,4.3319,4.3362,4.3338,4.3284,4.3268,4.3278,4.3257,4.3217,4.3484,4.3484,4.3484,4.2646,4.2662,4.2813,4.2888,4.3005,4.3104,4.328,4.3413,4.3493,4.3498,4.3397,4.3383,4.3296,4.3266,4.3268,4.3235,4.3162,0,0]}]]